Starlink 5067

operational
NORAD ID: 55653 Int'l Des: 2023-021 Owner: SPXS Country: US Constellation: starlink
LEOCIRCULAR

Über Starlink 5067

Beschreibung wird geladen...

Live-Position

3D-Globus wird geladen...

Nächste Überflüge

Höhenverlauf

Altitude vs Time

uPlot chart will show altitude changes over time

Zweizeiliger Elementsatz

1 55653U 23021AB 25352.56385492 -.00005030 00000-0 -41425-3 0 9990
2 55653 70.0016 28.8364 0003208 269.8963 90.1829 14.98315272156640
Epoch: 18. Dez. 2025 • Age: 14 hours

Aktueller Status

Höhe 588.7 km
Geschwindigkeit 7.57 km/s
Subsatellitenpunkt -48.96°S, 93.14°E
Startdatum 17. Feb. 2023
Alter 2.8 years
Typ internet

Technische Details

Klassifizierung Payload
Masse 305.00 kg
Trockenmasse 290.00 kg
Gesamtmasse 305.00 kg
Länge 0.20 m
Durchmesser 2.80 m
Spannweite 9.00 m
Form Box + pan
Hersteller SPXS
Bus-Typ Starlink
Phasenstatus In Orbit
Besitzer/Staat SPXS/US

Große Konstellationen

Loading constellations...